GW2822 Weather Reports


time (UTC)temp
C
wind
direction
speed
KPH
gust
KPH
rain 1hr
cm
rain 24hr
cm
rain mn
cm
humidity
%
barometer
mb
20260906064538 26 201 1.6 6.4 0.00 0.00 0.00 74 1009.8
20260906064028 26 173 0.0 6.4 0.00 0.00 0.00 73 1009.9
20260906063516 26 167 0.0 9.7 0.00 0.00 0.00 73 1010.0
20260906063006 26 159 1.6 9.7 0.00 0.00 0.00 73 1010.0
20260906062558 27 174 1.6 9.7 0.00 0.00 0.00 73 1010.0
20260906062050 27 167 1.6 8.0 0.00 0.00 0.00 72 1010.1
20260906061537 27 167 3.2 8.0 0.00 0.00 0.00 72 1010.1
20260906061026 27 163 1.6 9.7 0.00 0.00 0.00 72 1010.2
20260906060518 27 168 3.2 9.7 0.00 0.00 0.00 72 1010.2
20260906060056 27 168 3.2 11.3 0.00 0.00 0.00 72 1010.2
20260906055545 27 197 1.6 11.3 0.00 0.00 0.00 72 1010.2
20260906055035 27 225 3.2 11.3 0.00 0.00 0.00 72 1010.1
20260906054529 27 190 4.8 11.3 0.00 0.00 0.00 72 1010.1
20260906054013 27 184 4.8 12.9 0.00 0.00 0.00 72 1010.1
20260906053503 27 190 8.0 16.1 0.00 0.00 0.00 72 1010.1
20260906053054 27 188 8.0 16.1 0.00 0.00 0.00 72 1010.2
20260906052543 27 173 3.2 14.5 0.00 0.00 0.00 72 1010.3
20260906052032 27 166 9.7 16.1 0.00 0.00 0.00 72 1010.3
20260906051521 27 181 3.2 19.3 0.00 0.00 0.00 71 1010.3
20260906051011 28 183 14.5 19.3 0.00 0.00 0.00 71 1010.3
20260906050604 28 158 12.9 17.7 0.00 0.00 0.00 71 1010.3
20260906050046 28 150 6.4 14.5 0.00 0.00 0.00 71 1010.3
20260906045530 28 181 3.2 16.1 0.00 0.00 0.00 70 1010.3
20260906045017 28 143 8.0 17.7 0.00 0.00 0.00 70 1010.3
20260906044507 28 153 8.0 17.7 0.00 0.00 0.00 70 1010.4
20260906044058 28 148 6.4 14.5 0.00 0.00 0.00 69 1010.3
20260906043544 28 127 1.6 14.5 0.00 0.00 0.00 69 1010.2
20260906043034 28 149 4.8 14.5 0.00 0.00 0.00 69 1010.3
20260906042523 28 163 8.0 17.7 0.00 0.00 0.00 68 1010.4
20260906042013 28 167 9.7 17.7 0.00 0.00 0.00 68 1010.4
20260906041503 28 192 6.4 14.5 0.00 0.00 0.00 67 1010.4
20260906041053 28 158 3.2 11.3 0.00 0.00 0.00 66 1010.2
20260906040544 29 175 4.8 19.3 0.00 0.00 0.00 66 1010.2
20260906040028 29 148 8.0 19.3 0.00 0.00 0.00 66 1010.1
20260906035509 29 142 6.4 14.5 0.00 0.00 0.00 65 1010.0
20260906035101 29 121 6.4 11.3 0.00 0.00 0.00 65 1009.9
20260906034550 29 144 3.2 9.7 0.00 0.00 0.00 64 1009.9
20260906034039 29 146 3.2 9.7 0.00 0.00 0.00 63 1009.9
20260906033531 29 136 3.2 8.0 0.00 0.00 0.00 62 1009.8
20260906033035 29 134 1.6 6.4 0.00 0.00 0.00 62 1009.8
20260906032508 29 120 1.6 8.0 0.00 0.00 0.00 62 1009.8
20260906032100 29 130 3.2 8.0 0.00 0.00 0.00 61 1009.6
20260906031558 29 118 0.0 4.8 0.00 0.00 0.00 61 1009.6
20260906031040 30 118 1.6 6.4 0.00 0.00 0.00 60 1009.6
20260906030529 30 117 1.6 6.4 0.00 0.00 0.00 60 1009.4
20260906030010 30 109 0.0 4.8 0.00 0.00 0.00 60 1009.1
20260906025556 30 113 1.6 6.4 0.00 0.00 0.00 60 1009.0
20260906025046 30 121 3.2 6.4 0.00 0.00 0.00 59 1008.9
20260906024537 30 143 1.6 9.7 0.00 0.00 0.00 59 1008.7
20260906024026 30 113 3.2 9.7 0.00 0.00 0.00 59 1008.6
20260906023515 30 111 3.2 11.3 0.00 0.00 0.00 59 1008.5
20260906023003 30 98 1.6 11.3 0.00 0.00 0.00 59 1008.5
20260906022556 30 112 1.6 11.3 0.00 0.00 0.00 59 1008.5
20260906022047 30 114 3.2 14.5 0.00 0.00 0.00 58 1008.3
20260906021535 30 111 4.8 17.7 0.00 0.00 0.00 58 1008.2
20260906021023 30 99 6.4 16.1 0.00 0.00 0.00 57 1008.1
20260906020513 30 115 8.0 16.1 0.00 0.00 0.00 57 1008.1
20260906020100 30 119 4.8 12.9 0.00 0.00 0.00 56 1008.1
20260906015542 30 107 3.2 11.3 0.00 0.00 0.00 56 1008.1
20260906015031 30 113 4.8 20.9 0.00 0.00 0.00 55 1007.9
20260906014520 30 104 4.8 20.9 0.00 0.00 0.00 54 1007.9
20260906014009 30 68 0.0 12.9 0.00 0.00 0.00 54 1007.9
20260906013605 31 117 0.0 0.0 0.00 0.00 0.00 51 1007.8
20260906013050 31 117 0.0 0.0 0.00 0.00 0.00 51 1007.7
20260906012543 31 117 0.0 0.0 0.00 0.00 0.00 51 1007.6
20260906012028 31 117 0.0 0.0 0.00 0.00 0.00 50 1007.6
20260906011523 32 117 0.0 3.2 0.00 0.00 0.00 48 1007.7
20260906011008 32 117 0.0 3.2 0.00 0.00 0.00 48 1007.6
20260906010558 32 117 0.0 0.0 0.00 0.00 0.00 47 1007.6
20260906010036 32 117 0.0 4.8 0.00 0.00 0.00 46 1007.5
20260906005526 33 117 0.0 4.8 0.00 0.00 0.00 46 1007.5
20260906005017 33 105 0.0 4.8 0.00 0.00 0.00 45 1007.5
20260906004504 33 105 1.6 6.4 0.00 0.00 0.00 45 1007.3
20260906004054 33 94 3.2 12.9 0.00 0.00 0.00 44 1007.3
20260906003541 33 126 3.2 12.9 0.00 0.00 0.00 44 1007.3
20260906003031 34 175 1.6 11.3 0.00 0.00 0.00 43 1007.2
20260906002521 34 112 1.6 12.9 0.00 0.00 0.00 43 1007.2
20260906002010 34 134 4.8 14.5 0.00 0.00 0.00 43 1007.4
20260906001600 34 115 3.2 14.5 0.00 0.00 0.00 42 1007.3
20260906001050 34 161 6.4 16.1 0.00 0.00 0.00 42 1007.4
20260906000539 35 73 6.4 16.1 0.00 0.00 0.00 41 1007.4
20260906000017 35 167 3.2 14.5 0.00 0.00 0.00 40 1007.4
20260905235506 35 97 3.2 14.5 0.00 0.00 0.00 40 1007.4
20260905235057 35 73 3.2 16.1 0.00 0.00 0.00 40 1007.4
20260905234547 35 135 8.0 16.1 0.00 0.00 0.00 39 1007.4
20260905234035 35 117 6.4 14.5 0.00 0.00 0.00 39 1007.4
20260905233526 35 123 6.4 20.9 0.00 0.00 0.00 39 1007.3
20260905233014 35 84 8.0 20.9 0.00 0.00 0.00 38 1007.3
20260905232503 35 130 6.4 16.1 0.00 0.00 0.00 38 1007.4
20260905232055 35 89 4.8 17.7 0.00 0.00 0.00 38 1007.3
20260905231544 36 108 8.0 17.7 0.00 0.00 0.00 37 1007.3
20260905231036 36 115 6.4 16.1 0.00 0.00 0.00 37 1007.3
20260905230522 36 200 9.7 16.1 0.00 0.00 0.00 36 1007.3
20260905230105 36 101 1.6 12.9 0.00 0.00 0.00 36 1007.2
20260905225552 36 97 1.6 12.9 0.00 0.00 0.00 37 1007.2
20260905225040 36 110 6.4 16.1 0.00 0.00 0.00 37 1007.3
20260905224545 36 113 6.4 16.1 0.00 0.00 0.00 36 1007.3
20260905224024 36 134 3.2 14.5 0.00 0.00 0.00 37 1007.3
20260905223509 36 101 3.2 12.9 0.00 0.00 0.00 37 1007.3
20260905223101 36 188 9.7 12.9 0.00 0.00 0.00 38 1007.2
20260905222550 36 177 8.0 16.1 0.00 0.00 0.00 38 1007.3
20260905222040 35 150 8.0 16.1 0.00 0.00 0.00 39 1007.3
20260905221531 35 91 1.6 17.7 0.00 0.00 0.00 39 1007.4
20260905221023 35 65 6.4 17.7 0.00 0.00 0.00 39 1007.5
20260905220510 35 126 6.4 17.7 0.00 0.00 0.00 41 1007.6
20260905220103 35 55 4.8 14.5 0.00 0.00 0.00 41 1007.6
20260905215539 35 94 4.8 17.7 0.00 0.00 0.00 41 1007.5
20260905215028 35 162 1.6 20.9 0.00 0.00 0.00 41 1007.5
20260905214518 36 76 8.0 20.9 0.00 0.00 0.00 40 1007.5
20260905214008 36 80 8.0 14.5 0.00 0.00 0.00 40 1007.5
20260905213559 36 62 4.8 12.9 0.00 0.00 0.00 40 1007.4
20260905213051 36 63 6.4 19.3 0.00 0.00 0.00 41 1007.6
20260905212537 36 65 8.0 19.3 0.00 0.00 0.00 41 1007.5
20260905212026 36 105 3.2 11.3 0.00 0.00 0.00 41 1007.6
20260905211516 36 69 1.6 17.7 0.00 0.00 0.00 41 1007.6
20260905211006 36 90 9.7 17.7 0.00 0.00 0.00 40 1007.6
20260905210558 37 90 8.0 14.5 0.00 0.00 0.00 39 1007.6
20260905210035 37 190 4.8 16.1 0.00 0.00 0.00 39 1007.7
20260905205524 37 123 3.2 14.5 0.00 0.00 0.00 40 1007.9
20260905205013 36 190 8.0 24.1 0.00 0.00 0.00 41 1007.9
20260905204506 36 189 8.0 24.1 0.00 0.00 0.00 41 1008.1
20260905204053 36 113 0.0 8.0 0.00 0.00 0.00 42 1008.1
20260905203545 35 51 3.2 9.7 0.00 0.00 0.00 42 1008.2
20260905203037 35 71 3.2 22.5 0.00 0.00 0.00 43 1008.4
20260905202521 35 154 9.7 22.5 0.00 0.00 0.00 44 1008.5
20260905202012 34 113 0.0 16.1 0.00 0.00 0.00 44 1008.5
20260905201500 35 93 9.7 19.3 0.00 0.00 0.00 43 1008.6
20260905201057 35 244 8.0 19.3 0.00 0.00 0.00 43 1008.7
20260905200541 35 140 9.7 19.3 0.00 0.00 0.00 44 1008.8
20260905200021 35 181 9.7 19.3 0.00 0.00 0.00 45 1008.9
20260905195049 35 95 4.8 14.5 0.00 0.00 0.00 46 1009.0
20260905194539 35 138 3.2 11.3 0.00 0.00 0.00 45 1009.1
20260905194029 35 90 1.6 14.5 0.00 0.00 0.00 45 1009.2
20260905193517 35 94 3.2 14.5 0.00 0.00 0.00 43 1009.3
20260905193008 35 119 3.2 16.1 0.00 0.00 0.00 43 1009.3
20260905192558 35 166 6.4 16.1 0.00 0.00 0.00 44 1009.4
20260905192048 35 124 0.0 16.1 0.00 0.00 0.00 46 1009.5
20260905191537 34 109 4.8 16.1 0.00 0.00 0.00 47 1009.5
20260905191028 35 78 6.4 17.7 0.00 0.00 0.00 46 1009.7
20260905190515 35 171 6.4 16.1 0.00 0.00 0.00 45 1009.7
20260905190055 35 102 6.4 14.5 0.00 0.00 0.00 47 1009.8
20260905185546 35 101 6.4 14.5 0.00 0.00 0.00 47 1010.0
20260905185033 35 185 4.8 16.1 0.00 0.00 0.00 47 1010.1
20260905184528 35 234 11.3 17.7 0.00 0.00 0.00 47 1010.2
20260905184013 35 167 6.4 12.9 0.00 0.00 0.00 47 1010.3
20260905183503 35 138 1.6 22.5 0.00 0.00 0.00 44 1010.3
20260905183057 35 163 8.0 22.5 0.00 0.00 0.00 46 1010.5
20260905182542 35 155 6.4 19.3 0.00 0.00 0.00 44 1010.5
20260905182032 34 205 8.0 19.3 0.00 0.00 0.00 44 1010.6
20260905181522 35 292 1.6 22.5 0.00 0.00 0.00 47 1010.6
20260905181012 34 145 8.0 22.5 0.00 0.00 0.00 49 1010.8
20260905180602 34 193 4.8 20.9 0.00 0.00 0.00 49 1010.8
20260905180040 33 178 8.0 19.3 0.00 0.00 0.00 50 1010.9
20260905175529 33 140 6.4 19.3 0.00 0.00 0.00 48 1011.1
20260905175018 33 184 4.8 14.5 0.00 0.00 0.00 53 1010.9
20260905174506 33 183 0.0 19.3 0.00 0.00 0.00 54 1011.2
20260905174058 33 187 12.9 20.9 0.00 0.00 0.00 55 1011.3
20260905173547 33 189 6.4 12.9 0.00 0.00 0.00 54 1011.3
20260905173037 33 141 4.8 17.7 0.00 0.00 0.00 55 1011.4
20260905172528 33 49 9.7 17.7 0.00 0.00 0.00 54 1011.4
20260905172017 33 178 9.7 17.7 0.00 0.00 0.00 55 1011.5
20260905171509 33 150 8.0 22.5 0.00 0.00 0.00 56 1011.4
20260905171057 33 205 4.8 16.1 0.00 0.00 0.00 53 1011.4
20260905170547 33 134 3.2 17.7 0.00 0.00 0.00 55 1011.4
20260905170024 32 179 9.7 20.9 0.00 0.00 0.00 55 1011.4
20260905165515 32 201 11.3 20.9 0.00 0.00 0.00 54 1011.4
20260905165005 32 167 8.0 16.1 0.00 0.00 0.00 55 1011.5
20260905164554 32 192 8.0 16.1 0.00 0.00 0.00 56 1011.4
20260905164048 32 171 8.0 16.1 0.00 0.00 0.00 57 1011.5
20260905163532 32 172 8.0 14.5 0.00 0.00 0.00 58 1011.5
20260905163022 32 181 6.4 19.3 0.00 0.00 0.00 60 1011.5
20260905162516 32 166 8.0 20.9 0.00 0.00 0.00 61 1011.7
20260905162102 32 188 11.3 20.9 0.00 0.00 0.00 60 1011.7
20260905161552 31 206 11.3 19.3 0.00 0.00 0.00 61 1011.7
20260905161042 31 174 12.9 16.1 0.00 0.00 0.00 62 1011.7
20260905160530 31 182 8.0 16.1 0.00 0.00 0.00 63 1011.8
20260905160011 31 167 9.7 19.3 0.00 0.00 0.00 65 1011.8
20260905155558 30 172 11.3 19.3 0.00 0.00 0.00 66 1011.8
20260905155050 30 196 1.6 16.1 0.00 0.00 0.00 70 1011.8
20260905154539 30 240 4.8 14.5 0.00 0.00 0.00 70 1011.8
20260905154028 30 178 8.0 14.5 0.00 0.00 0.00 72 1011.7
20260905153516 29 174 4.8 12.9 0.00 0.00 0.00 72 1011.8
20260905153012 29 132 4.8 12.9 0.00 0.00 0.00 75 1011.7
20260905152556 28 213 6.4 12.9 0.00 0.00 0.00 76 1011.7
20260905152045 28 214 3.2 14.5 0.00 0.00 0.00 78 1011.8
20260905151536 27 205 4.8 12.9 0.00 0.00 0.00 79 1011.7
20260905151023 27 213 6.4 14.5 0.00 0.00 0.00 79 1011.9
20260905150512 27 215 8.0 14.5 0.00 0.00 0.00 79 1011.8
20260905150052 27 211 9.7 17.7 0.00 0.03 0.00 79 1011.7
20260905145543 27 195 9.7 17.7 0.00 0.03 0.00 81 1011.7
20260905145032 27 208 6.4 16.1 0.00 0.03 0.00 83 1011.6
20260905144520 27 195 8.0 17.7 0.00 0.03 0.00 85 1011.7
20260905144014 26 180 4.8 17.7 0.00 0.03 0.00 89 1011.8
20260905143601 26 173 6.4 14.5 0.00 0.03 0.00 91 1011.8
20260905143050 25 240 4.8 12.9 0.00 0.03 0.00 93 1011.8
20260905142542 25 179 4.8 12.9 0.00 0.03 0.00 94 1011.7
20260905142029 25 215 1.6 9.7 0.00 0.03 0.00 95 1011.7
20260905141518 25 202 3.2 9.7 0.00 0.03 0.00 95 1011.6
20260905141009 25 166 3.2 11.3 0.00 0.03 0.00 95 1011.6
20260905140600 25 193 1.6 11.3 0.00 0.03 0.00 95 1011.5
20260905140038 25 202 6.4 12.9 0.00 0.03 0.00 96 1011.6
20260905135526 25 192 3.2 11.3 0.00 0.03 0.00 96 1011.5
20260905135014 24 193 3.2 8.0 0.00 0.03 0.00 96 1011.5
20260905134504 24 160 1.6 8.0 0.00 0.03 0.00 96 1011.5
20260905134057 23 174 0.0 4.8 0.00 0.03 0.00 96 1011.4
20260905133544 23 148 0.0 3.2 0.00 0.03 0.00 96 1011.4
20260905133034 23 209 0.0 0.0 0.00 0.03 0.00 96 1011.3
20260905132527 22 209 0.0 0.0 0.00 0.03 0.00 96 1011.3
20260905132013 22 175 0.0 0.0 0.00 0.03 0.00 95 1011.3
20260905131606 22 175 0.0 0.0 0.00 0.03 0.00 95 1011.2
20260905131050 22 175 0.0 0.0 0.00 0.03 0.00 95 1011.2
20260905130540 21 175 0.0 0.0 0.00 0.03 0.00 94 1011.2
20260905130018 21 175 0.0 0.0 0.00 0.03 0.00 94 1011.1
20260905125506 21 175 0.0 0.0 0.00 0.03 0.00 94 1010.9
20260905125058 21 175 0.0 0.0 0.00 0.03 0.00 94 1010.9
20260905124552 21 175 0.0 0.0 0.00 0.03 0.00 94 1010.8
20260905124037 21 175 0.0 0.0 0.00 0.03 0.00 93 1010.7
20260905123526 21 175 0.0 0.0 0.00 0.03 0.00 93 1010.6
20260905123015 21 175 0.0 0.0 0.00 0.03 0.00 93 1010.6
20260905122507 21 175 0.0 0.0 0.00 0.03 0.00 93 1010.6
20260905122056 21 175 0.0 0.0 0.00 0.03 0.00 93 1010.6
20260905121546 21 175 0.0 0.0 0.00 0.03 0.00 93 1010.6
20260905121036 21 175 0.0 0.0 0.00 0.03 0.00 93 1010.6
20260905120525 21 175 0.0 0.0 0.00 0.03 0.00 93 1010.6
20260905120002 21 175 0.0 0.0 0.00 0.03 0.00 93 1010.6
20260905115554 21 175 0.0 0.0 0.00 0.03 0.00 92 1010.5
20260905115043 21 175 0.0 0.0 0.00 0.03 0.00 92 1010.5
20260905114532 21 175 0.0 0.0 0.00 0.03 0.00 92 1010.4
20260905114021 21 175 0.0 0.0 0.00 0.03 0.00 92 1010.4
20260905113511 21 175 0.0 0.0 0.00 0.03 0.00 92 1010.5
20260905113104 21 175 0.0 0.0 0.00 0.03 0.00 92 1010.5
20260905112553 21 175 0.0 0.0 0.00 0.03 0.00 92 1010.5
20260905112041 22 175 0.0 0.0 0.00 0.03 0.00 92 1010.4
20260905111532 22 175 0.0 0.0 0.00 0.03 0.00 92 1010.4
20260905111020 22 175 0.0 0.0 0.00 0.03 0.00 92 1010.4
20260905110508 22 175 0.0 0.0 0.00 0.03 0.00 91 1010.4
20260905110053 22 175 0.0 0.0 0.00 0.03 0.00 91 1010.4
20260905105537 22 175 0.0 0.0 0.00 0.03 0.00 91 1010.4
20260905105026 22 175 0.0 0.0 0.00 0.03 0.00 91 1010.3
20260905104517 22 175 0.0 0.0 0.00 0.03 0.00 91 1010.2
20260905104009 22 175 0.0 0.0 0.00 0.03 0.00 91 1010.1
20260905103601 22 175 0.0 0.0 0.00 0.03 0.00 91 1010.1
20260905103051 22 175 0.0 0.0 0.00 0.03 0.00 91 1010.1
20260905102536 22 175 0.0 0.0 0.00 0.03 0.00 91 1010.1
20260905102025 22 175 0.0 0.0 0.00 0.03 0.00 90 1010.1
20260905101516 23 175 0.0 0.0 0.00 0.03 0.00 90 1010.1
20260905101004 23 175 0.0 0.0 0.00 0.03 0.00 90 1010.1
20260905100556 23 175 0.0 0.0 0.00 0.03 0.00 89 1010.1
20260905100033 23 175 0.0 0.0 0.00 0.03 0.00 89 1010.0
20260905095522 23 175 0.0 0.0 0.00 0.03 0.00 89 1009.9
20260905095011 23 175 0.0 0.0 0.00 0.03 0.00 89 1010.0
20260905094603 23 175 0.0 0.0 0.00 0.03 0.00 89 1010.1
20260905094051 23 175 0.0 0.0 0.00 0.03 0.00 89 1010.0
20260905093541 23 175 0.0 0.0 0.00 0.03 0.00 89 1010.0
20260905093030 23 175 0.0 0.0 0.00 0.03 0.00 89 1010.0
20260905092521 23 175 0.0 0.0 0.00 0.03 0.00 89 1009.9
20260905092009 24 175 0.0 0.0 0.00 0.03 0.00 89 1009.9
20260905091622 24 175 0.0 0.0 0.00 0.03 0.00 89 1010.0
20260905091050 24 175 0.0 0.0 0.00 0.03 0.00 88 1010.1
20260905090538 24 175 0.0 0.0 0.00 0.03 0.00 88 1010.1
20260905090016 24 175 0.0 0.0 0.00 0.03 0.00 88 1010.1
20260905085505 25 175 0.0 0.0 0.00 0.03 0.00 88 1010.1
20260905085056 25 175 0.0 0.0 0.00 0.03 0.00 88 1010.2
20260905084542 25 175 0.0 0.0 0.00 0.03 0.00 88 1010.2
20260905084032 25 175 0.0 0.0 0.00 0.03 0.00 88 1010.2
20260905083520 25 175 0.0 0.0 0.00 0.03 0.00 88 1010.2
20260905083010 25 175 0.0 1.6 0.00 0.03 0.00 88 1010.3
20260905082604 25 175 0.0 3.2 0.00 0.03 0.00 88 1010.3
20260905082051 25 175 0.0 4.8 0.00 0.03 0.00 88 1010.3
20260905081542 25 177 0.0 8.0 0.00 0.03 0.00 88 1010.4
20260905081030 25 157 0.0 8.0 0.00 0.03 0.00 88 1010.4
20260905080516 25 175 1.6 8.0 0.00 0.03 0.00 87 1010.4
20260905080058 25 186 0.0 6.4 0.00 0.03 0.00 87 1010.5
20260905075546 25 168 1.6 6.4 0.00 0.03 0.00 87 1010.4
20260905075035 25 150 0.0 6.4 0.00 0.03 0.00 87 1010.4
20260905074525 25 146 0.0 9.7 0.00 0.03 0.00 87 1010.4
20260905074013 25 148 3.2 9.7 0.00 0.03 0.00 86 1010.5
20260905073503 25 182 3.2 9.7 0.00 0.03 0.00 86 1010.5
20260905073100 25 136 0.0 8.0 0.00 0.03 0.00 86 1010.6
20260905072544 25 165 4.8 8.0 0.00 0.03 0.00 86 1010.6
20260905072035 25 138 0.0 8.0 0.00 0.03 0.00 85 1010.6
20260905071523 25 180 1.6 11.3 0.00 0.03 0.00 85 1010.6
20260905071012 25 186 1.6 11.3 0.00 0.03 0.00 85 1010.6
20260905070501 25 133 3.2 8.0 0.00 0.03 0.00 85 1010.6
20260905070041 25 153 1.6 8.0 0.00 0.03 0.00 84 1010.5
20260905065533 25 149 1.6 4.8 0.00 0.03 0.00 84 1010.5
20260905065018 25 170 0.0 4.8 0.00 0.03 0.00 84 1010.6